Monarch Pass, CO

1:50 AM MDT on June 29, 2017 (GMT -0600)
Monarch Pass

Weather History for KMYP - March, 2013

Change the Weather History Date:

Saturday, March 9, 2013

  Actual Average (KALS) Record (KALS)
Temperature  
Mean Temperature 16 °F -  
Max Temperature 19 °F 50 °F 71 °F (1989)
Min Temperature 10 °F 16 °F -7 °F (1964)
Degree Days  
Heating Degree Days 50    
Moisture  
Dew Point 12 °F    
Average Humidity 89    
Maximum Humidity 93    
Minimum Humidity 85    
Precipitation  
Precipitation 0.00 in - - ()
Sea Level Pressure  
Sea Level Pressure 29.84 in    
Wind  
Wind Speed - (North)    
Max Wind Speed -    
Max Gust Speed -    
Averages and records for this station are not official NWS values.
T = Trace of Precipitation, MM = Missing Value Source: NWS Daily Summary

Daily Weather History Graph

Daily Weather History Graph

Search for Another Location

Airport or City:

Trip Planner

Search our weather history database for the weather conditions in past years. The results will help you decide how hot, cold, wet, or windy it might be!

Date:

Astronomy

Mar. 09, 2013 Rise Set
Actual Time 6:24 AM MST 6:06 PM MST
Civil Twilight 5:58 AM MST 6:32 PM MST
Nautical Twilight 5:27 AM MST 7:03 PM MST
Astronomical Twilight 4:56 AM MST 7:34 PM MST
Moon 4:48 AM MST (3/9) 4:12 PM MST (3/9)
Length of Visible Light 12h 34m
Length of Day
11h 41m
Waning Crescent, 5% of the Moon is Illuminated
Mar 9
Waning Crescent
Mar 11
New
Mar 19
First Quarter
Mar 27
Full
Apr 2
Last Quarter

Hourly Weather History & Observations

Time (MST) Temp. Dew Point Humidity Pressure Visibility Wind Dir Wind Speed Gust Speed Precip Events Conditions
12:19 AM 19.4 °F 17.6 °F 93% 29.82 in - North - - N/A   Overcast
12:39 AM 19.4 °F 17.6 °F 93% 29.81 in - North - - N/A   Overcast
12:59 AM 19.4 °F 17.6 °F 93% 29.81 in - North - - N/A   Overcast
1:19 AM 19.4 °F 15.8 °F 86% 29.81 in - North - - N/A   Overcast
1:39 AM 19.4 °F 15.8 °F 86% 29.81 in - North - - N/A   Overcast
1:59 AM 17.6 °F 15.8 °F 93% 29.80 in - North - - N/A   Overcast
2:19 AM 19.4 °F 15.8 °F 86% 29.78 in - North - - N/A   Overcast
2:39 AM 17.6 °F 15.8 °F 93% 29.77 in - North - - N/A   Overcast
2:59 AM 17.6 °F 15.8 °F 93% 29.76 in - North - - N/A   Overcast
3:19 AM 17.6 °F 15.8 °F 93% 29.75 in - North - - N/A   Overcast
3:39 AM 17.6 °F 15.8 °F 93% 29.75 in - North - - N/A   Overcast
3:59 AM 17.6 °F 15.8 °F 93% 29.75 in - North - - N/A   Overcast
4:19 AM 17.6 °F 15.8 °F 93% 29.74 in - North - - N/A   Overcast
4:39 AM 17.6 °F 15.8 °F 93% 29.74 in - North - - N/A   Overcast
4:59 AM 17.6 °F 15.8 °F 93% 29.73 in - North - - N/A   Overcast
5:19 AM 17.6 °F 14.0 °F 86% 29.74 in - North - - N/A   Overcast
5:39 AM 17.6 °F 14.0 °F 86% 29.74 in - North - - N/A   Overcast
5:51 AM 17.6 °F 14.0 °F 86% 29.75 in - North - - N/A   Overcast
6:10 AM 17.6 °F 14.0 °F 86% 29.76 in - North - - N/A   Overcast
6:30 AM 17.6 °F 14.0 °F 86% 29.76 in - North - - N/A   Overcast
6:49 AM 17.6 °F 14.0 °F 86% 29.75 in - North - - N/A   Unknown
7:11 AM 17.6 °F 14.0 °F 86% 29.74 in - North - - N/A   Unknown
9:39 AM 15.8 °F 12.2 °F 86% 29.75 in - North - - N/A   Overcast
9:59 AM 14.0 °F 12.2 °F 93% 29.75 in - North - - N/A   Unknown
10:19 AM 14.0 °F 10.4 °F 86% 29.75 in - North - - N/A   Overcast
10:39 AM 14.0 °F 10.4 °F 86% 29.76 in - North - - N/A   Overcast
10:59 AM 14.0 °F 12.2 °F 93% 29.76 in - North - - N/A   Overcast
11:19 AM 14.0 °F 10.4 °F 86% 29.76 in - North - - N/A   Unknown
11:38 AM 14.0 °F 10.4 °F 86% 29.76 in - North - - N/A   Overcast
11:59 AM 12.2 °F 10.4 °F 92% 29.77 in - North - - N/A   Overcast
12:19 PM 12.2 °F 10.4 °F 92% 29.78 in - North - - N/A   Overcast
12:39 PM 12.2 °F 10.4 °F 92% 29.78 in - North - - N/A   Overcast
12:59 PM 12.2 °F 10.4 °F 92% 29.78 in - North - - N/A   Overcast
1:19 PM 12.2 °F 10.4 °F 92% 29.77 in - North - - N/A   Overcast
1:39 PM 12.2 °F 10.4 °F 92% 29.77 in - North - - N/A   Overcast
1:59 PM 12.2 °F 10.4 °F 92% 29.78 in - North - - N/A   Overcast
2:19 PM 12.2 °F 10.4 °F 92% 29.79 in - North - - N/A   Overcast
2:39 PM 12.2 °F 10.4 °F 92% 29.80 in - North - - N/A   Overcast
2:59 PM 14.0 °F 10.4 °F 86% 29.80 in - North - - N/A   Overcast
3:19 PM 14.0 °F 10.4 °F 86% 29.82 in - North - - N/A   Overcast
3:39 PM 14.0 °F 10.4 °F 86% 29.83 in - North - - N/A   Overcast
3:59 PM 14.0 °F 10.4 °F 86% 29.83 in - North - - N/A   Overcast
4:19 PM 14.0 °F 10.4 °F 86% 29.84 in - North - - N/A   Overcast
4:39 PM 14.0 °F 10.4 °F 86% 29.85 in - North - - N/A   Overcast
4:59 PM 14.0 °F 10.4 °F 86% 29.86 in - North - - N/A   Overcast
5:19 PM 14.0 °F 10.4 °F 86% 29.88 in - North - - N/A   Overcast
5:39 PM 14.0 °F 10.4 °F 86% 29.89 in - North - - N/A   Overcast
5:59 PM 14.0 °F 10.4 °F 86% 29.90 in - North - - N/A   Overcast
6:19 PM 12.2 °F 10.4 °F 92% 29.90 in - North - - N/A   Overcast
6:39 PM 12.2 °F 10.4 °F 92% 29.92 in - North - - N/A   Overcast
6:59 PM 12.2 °F 10.4 °F 92% 29.93 in - North - - N/A   Overcast
7:19 PM 12.2 °F 10.4 °F 92% 29.94 in - North - - N/A   Overcast
7:39 PM 12.2 °F 10.4 °F 92% 29.95 in - North - - N/A   Unknown
7:59 PM 14.0 °F 10.4 °F 86% 29.96 in - North - - N/A   Overcast
8:19 PM 14.0 °F 10.4 °F 86% 29.96 in - North - - N/A   Overcast
8:39 PM 12.2 °F 10.4 °F 92% 29.97 in - North - - N/A   Overcast
8:59 PM 12.2 °F 10.4 °F 92% 29.99 in - North - - N/A   Overcast
9:19 PM 12.2 °F 10.4 °F 92% 29.99 in - North - - N/A   Unknown
9:39 PM 12.2 °F 8.6 °F 85% 30.01 in - North - - N/A   Unknown
9:59 PM 12.2 °F 10.4 °F 92% 30.01 in - North - - N/A   Unknown
10:19 PM 12.2 °F 8.6 °F 85% 30.01 in - North - - N/A   Unknown
10:39 PM 12.2 °F 10.4 °F 92% 30.02 in - North - - N/A   Overcast
10:59 PM 12.2 °F 10.4 °F 92% 30.02 in - North - - N/A   Overcast
11:19 PM 12.2 °F 8.6 °F 85% 30.01 in - North - - N/A   Overcast
11:39 PM 12.2 °F 8.6 °F 85% 30.01 in - North - - N/A   Overcast
11:59 PM 10.4 °F 8.6 °F 92% 30.00 in - North - - N/A   Overcast